• In Russia
  • List of Countries
  • For 7 days
  • Water Temperature
  • Weather Map
  • Weather Widgets
  • user-avatar
    Login

    Hourly Weather Canberra

    Today, 18 November, Monday

    Time Temperature Precipitation Wind Pressure Humidity
    00:00 +11°C° 0 mm 1 mps 710 mmHg 91%
    01:00 +11°C° 0 mm 1 mps 710 mmHg 92%
    02:00 +11°C° 0 mm 1 mps 710 mmHg 91%
    03:00 +11°C° 0 mm 1 mps 710 mmHg 90%
    04:00 +10°C° 0 mm 0 mps 710 mmHg 91%
    05:00 +12°C° 0 mm 1 mps 710 mmHg 86%
    06:00 +13°C° 0 mm 2 mps 710 mmHg 81%
    07:00 +13°C° 0 mm 2 mps 710 mmHg 76%
    08:00 +16°C° 0 mm 3 mps 710 mmHg 62%
    09:00 +18°C° 0 mm 4 mps 710 mmHg 47%
    10:00 +21°C° 0 mm 5 mps 710 mmHg 33%
    11:00 +22°C° 0 mm 5 mps 710 mmHg 30%
    12:00 +25°C° 0 mm 5 mps 709 mmHg 27%
    13:00 +26°C° 0 mm 6 mps 709 mmHg 24%
    14:00 +26°C° 0 mm 6 mps 708 mmHg 24%
    15:00 +26°C° 0 mm 6 mps 708 mmHg 25%
    16:00 +26°C° 0 mm 6 mps 707 mmHg 25%
    17:00 +23°C° 0 mm 5 mps 707 mmHg 31%
    18:00 +20°C° 0 mm 4 mps 707 mmHg 37%
    19:00 +18°C° 0 mm 3 mps 707 mmHg 43%
    20:00 +16°C° 0 mm 2 mps 707 mmHg 48%
    21:00 +15°C° 0 mm 2 mps 707 mmHg 52%
    22:00 +13°C° 0 mm 1 mps 707 mmHg 56%
    23:00 +12°C° 0 mm 1 mps 707 mmHg 58%

    Tomorrow, 19 November, Tuesday

    Time Temperature Precipitation Wind Pressure Humidity
    00:00 +12°C° 0 mm 1 mps 706 mmHg 59%
    01:00 +11°C° 0 mm 1 mps 706 mmHg 61%
    02:00 +11°C° 0 mm 1 mps 706 mmHg 63%
    03:00 +10°C° 0 mm 1 mps 706 mmHg 65%
    04:00 +10°C° 0 mm 1 mps 705 mmHg 66%
    05:00 +13°C° 0 mm 1 mps 706 mmHg 58%
    06:00 +15°C° 0 mm 2 mps 706 mmHg 49%
    07:00 +18°C° 0 mm 2 mps 707 mmHg 40%
    08:00 +21°C° 0 mm 4 mps 707 mmHg 34%
    09:00 +25°C° 0 mm 5 mps 707 mmHg 27%
    10:00 +28°C° 0 mm 7 mps 707 mmHg 21%
    11:00 +29°C° 0 mm 7 mps 707 mmHg 19%
    12:00 +30°C° 0 mm 6 mps 706 mmHg 18%
    13:00 +32°C° 0 mm 6 mps 706 mmHg 17%
    14:00 +32°C° 0 mm 6 mps 706 mmHg 17%
    15:00 +32°C° 0 mm 5 mps 706 mmHg 17%
    16:00 +30°C° 0 mm 5 mps 706 mmHg 17%
    17:00 +27°C° 0 mm 4 mps 706 mmHg 27%
    18:00 +24°C° 0 mm 3 mps 707 mmHg 36%
    19:00 +19°C° 0 mm 2 mps 707 mmHg 46%
    20:00 +17°C° 0 mm 2 mps 707 mmHg 61%
    21:00 +14°C° 0 mm 2 mps 708 mmHg 76%
    22:00 +12°C° 0 mm 2 mps 708 mmHg 91%
    23:00 +10°C° 0 mm 2 mps 708 mmHg 92%

    Day after tomorrow, 20 November, Wednesday

    Time Temperature Precipitation Wind Pressure Humidity
    00:00 +9°C° 0 mm 2 mps 708 mmHg 94%
    01:00 +10°C° 0 mm 1 mps 707 mmHg 95%
    02:00 +9°C° 0 mm 1 mps 707 mmHg 95%
    03:00 +9°C° 0 mm 1 mps 707 mmHg 95%
    04:00 +9°C° 0 mm 1 mps 707 mmHg 95%
    05:00 +10°C° 0 mm 1 mps 708 mmHg 90%
    06:00 +12°C° 0 mm 1 mps 708 mmHg 84%
    07:00 +13°C° 0 mm 2 mps 709 mmHg 79%
    08:00 +17°C° 0 mm 2 mps 709 mmHg 65%
    09:00 +21°C° 0 mm 1 mps 709 mmHg 52%
    10:00 +25°C° 0 mm 1 mps 709 mmHg 38%
    11:00 +27°C° 0 mm 1 mps 709 mmHg 32%
    12:00 +30°C° 0 mm 1 mps 709 mmHg 26%
    13:00 +32°C° 0 mm 1 mps 709 mmHg 21%
    14:00 +32°C° 0 mm 1 mps 709 mmHg 20%
    15:00 +32°C° 0 mm 2 mps 709 mmHg 20%
    16:00 +32°C° 0 mm 2 mps 709 mmHg 19%
    17:00 +29°C° 0 mm 2 mps 709 mmHg 30%
    18:00 +25°C° 0 mm 2 mps 709 mmHg 41%
    19:00 +21°C° 0 mm 2 mps 709 mmHg 51%
    20:00 +19°C° 0 mm 2 mps 709 mmHg 63%
    21:00 +18°C° 0 mm 1 mps 709 mmHg 74%
    22:00 +15°C° 0 mm 1 mps 709 mmHg 86%
    23:00 +14°C° 0 mm 1 mps 709 mmHg 87%

    21 November, Thursday

    Time Temperature Precipitation Wind Pressure Humidity
    00:00 +14°C° 0 mm 1 mps 708 mmHg 87%
    01:00 +13°C° 0 mm 0 mps 708 mmHg 88%
    02:00 +13°C° 0 mm 0 mps 708 mmHg 85%
    03:00 +13°C° 0 mm 0 mps 707 mmHg 83%
    04:00 +13°C° 0 mm 0 mps 707 mmHg 80%
    05:00 +16°C° 0 mm 0 mps 707 mmHg 69%
    06:00 +19°C° 0 mm 0 mps 708 mmHg 57%
    07:00 +22°C° 0 mm 0 mps 708 mmHg 45%
    08:00 +27°C° 0 mm 1 mps 708 mmHg 37%
    09:00 +30°C° 0 mm 2 mps 708 mmHg 28%
    10:00 +35°C° 0 mm 3 mps 708 mmHg 20%
    11:00 +36°C° 0 mm 4 mps 708 mmHg 17%
    12:00 +37°C° 0 mm 5 mps 707 mmHg 14%
    13:00 +40°C° 0 mm 5 mps 707 mmHg 12%
    14:00 +40°C° 0 mm 6 mps 706 mmHg 12%
    15:00 +39°C° 0 mm 6 mps 705 mmHg 13%
    16:00 +39°C° 0 mm 6 mps 704 mmHg 13%
    17:00 +35°C° 0 mm 4 mps 704 mmHg 17%
    18:00 +31°C° 0 mm 3 mps 704 mmHg 22%
    19:00 +28°C° 0 mm 2 mps 704 mmHg 26%
    20:00 +26°C° 0.2 mm 2 mps 705 mmHg 38%
    21:00 +23°C° 0.2 mm 2 mps 705 mmHg 49%
    22:00 +20°C° 0.2 mm 2 mps 705 mmHg 60%
    23:00 +19°C° 0.2 mm 2 mps 705 mmHg 66%

    22 November, Friday

    Time Temperature Precipitation Wind Pressure Humidity
    00:00 +19°C° 0.2 mm 1 mps 705 mmHg 71%
    01:00 +19°C° 0.2 mm 1 mps 705 mmHg 77%
    02:00 +18°C° 0 mm 1 mps 705 mmHg 80%
    03:00 +16°C° 0 mm 1 mps 705 mmHg 84%
    04:00 +15°C° 0 mm 1 mps 705 mmHg 88%
    05:00 +18°C° 0 mm 1 mps 706 mmHg 85%
    06:00 +19°C° 0 mm 1 mps 706 mmHg 81%
    07:00 +20°C° 0 mm 1 mps 707 mmHg 78%
    08:00 +24°C° 0 mm 2 mps 707 mmHg 63%
    09:00 +27°C° 0 mm 3 mps 708 mmHg 49%
    10:00 +32°C° 0 mm 4 mps 708 mmHg 35%
    11:00 +33°C° 0 mm 5 mps 708 mmHg 32%
    12:00 +34°C° 0 mm 6 mps 708 mmHg 29%
    13:00 +35°C° 0 mm 7 mps 707 mmHg 26%
    14:00 +35°C° 0 mm 6 mps 707 mmHg 26%
    15:00 +35°C° 0 mm 6 mps 707 mmHg 27%
    16:00 +34°C° 0 mm 6 mps 707 mmHg 27%
    17:00 +29°C° 0 mm 5 mps 707 mmHg 37%
    18:00 +25°C° 0 mm 4 mps 707 mmHg 47%
    19:00 +20°C° 0 mm 3 mps 707 mmHg 57%
    20:00 +18°C° 0 mm 3 mps 708 mmHg 69%
    21:00 +16°C° 0 mm 3 mps 708 mmHg 81%
    22:00 +13°C° 0 mm 3 mps 708 mmHg 92%
    23:00 +15°C° 0 mm 2 mps 708 mmHg 90%

    23 November, Saturday

    Time Temperature Precipitation Wind Pressure Humidity
    00:00 +15°C° 0 mm 2 mps 708 mmHg 88%
    01:00 +15°C° 0 mm 1 mps 708 mmHg 86%
    02:00 +15°C° 0 mm 1 mps 708 mmHg 86%
    03:00 +15°C° 0 mm 1 mps 708 mmHg 86%
    04:00 +15°C° 0 mm 1 mps 708 mmHg 86%
    05:00 +16°C° 0 mm 1 mps 708 mmHg 82%
    06:00 +18°C° 0 mm 1 mps 709 mmHg 77%
    07:00 +20°C° 0 mm 1 mps 709 mmHg 72%
    08:00 +22°C° 0 mm 1 mps 709 mmHg 58%
    09:00 +25°C° 0 mm 2 mps 709 mmHg 44%
    10:00 +28°C° 0 mm 2 mps 710 mmHg 30%
    11:00 +29°C° 0 mm 3 mps 709 mmHg 24%
    12:00 +32°C° 0 mm 4 mps 709 mmHg 18%
    13:00 +33°C° 0 mm 5 mps 708 mmHg 12%
    14:00 +33°C° 0 mm 5 mps 708 mmHg 12%
    15:00 +32°C° 0 mm 5 mps 708 mmHg 13%
    16:00 +32°C° 0 mm 5 mps 708 mmHg 13%
    17:00 +27°C° 0 mm 4 mps 708 mmHg 25%
    18:00 +22°C° 0 mm 3 mps 708 mmHg 37%
    19:00 +19°C° 0 mm 2 mps 708 mmHg 48%
    20:00 +17°C° 0 mm 2 mps 709 mmHg 62%
    21:00 +16°C° 0 mm 3 mps 709 mmHg 75%
    22:00 +13°C° 0 mm 3 mps 709 mmHg 89%
    23:00 +14°C° 0 mm 2 mps 709 mmHg 87%
    Show more